Wind_Speed
59 59 57 55 53 51 51 51 52 51 48 45 43 43 44 44 44 45 45 44 44 46 46 45 46 44 39 34 32 31 31 30 28 27 27 27 26 27 26 23 21 21 22 24 25 24 23 23 23 23 22 22 22 22 23 23 23 22 22 22 22 23 23 24 24 23 23 24 25 25 27 27 28 29 29 30 30 31 31 31 32 34 37 39 41
58 59 58 58 57 55 54 52 52 52 51 49 46 45 46 45 45 46 46 43 43 45 45 47 49 47 43 37 33 32 32 32 31 28 27 28 28 28 28 24 22 22 22 24 26 25 24 23 23 23 22 22 22 23 23 22 22 22 22 21 22 22 23 24 24 24 23 24 25 26 27 29 29 29 29 29 30 31 31 31 32 34 37 39 41
53 56 57 58 57 56 56 55 55 54 53 52 51 49 48 47 47 49 48 44 43 44 45 47 49 48 47 42 36 35 35 34 32 29 28 29 29 30 30 26 23 23 23 25 26 27 25 24 23 23 22 22 23 23 23 22 22 22 21 21 21 22 23 24 25 24 24 24 25 26 27 29 29 29 29 29 29 31 32 32 32 34 37 38 40
48 49 52 55 56 58 58 58 57 57 55 54 54 53 51 49 51 52 51 48 47 47 48 49 49 49 50 46 39 37 37 35 34 30 28 30 32 32 31 28 25 24 24 25 27 27 27 25 24 23 22 23 23 24 24 23 22 22 22 21 21 22 23 24 25 25 24 25 25 26 28 29 30 30 29 29 30 31 33 33 33 34 36 38 39
54 50 51 52 53 55 58 59 58 57 57 56 55 55 55 53 52 54 54 52 51 50 49 51 51 49 48 44 41 40 39 37 36 33 30 31 34 33 32 30 26 25 25 26 27 28 28 26 25 24 23 23 24 25 25 24 23 22 22 22 21 22 22 24 25 25 25 26 27 28 29 30 31 32 31 30 30 32 33 34 34 34 36 38 39
62 57 54 54 53 53 55 57 57 56 56 57 56 56 57 56 54 53 54 54 53 50 48 50 51 48 45 43 43 43 41 39 38 36 34 33 35 34 33 32 28 26 25 27 28 29 29 27 26 25 24 24 25 26 26 25 23 23 23 22 22 22 22 23 24 24 25 26 28 29 30 31 32 33 33 31 30 32 34 35 35 35 36 39 39
65 63 57 55 56 57 57 58 58 57 55 55 56 56 57 57 55 52 50 50 50 49 48 49 50 47 44 44 45 45 42 40 39 39 37 36 35 35 34 33 31 27 26 27 29 30 30 29 27 26 25 25 25 26 26 26 24 23 23 22 22 22 22 23 23 24 25 27 29 30 31 32 33 34 33 32 31 32 35 36 36 36 37 38 39
67 69 64 58 57 61 62 61 60 61 59 55 55 55 56 56 54 52 50 47 46 47 47 49 48 46 45 46 47 46 43 40 39 40 40 38 36 36 36 35 32 29 27 28 29 30 30 30 28 27 27 26 26 26 26 26 25 24 23 22 22 21 22 22 23 24 25 27 29 30 32 33 34 35 34 33 33 34 35 37 37 37 37 38 39
69 70 70 66 62 62 64 63 62 66 66 60 58 56 56 55 52 51 51 48 46 45 46 47 47 46 46 47 47 45 42 40 40 40 40 39 38 37 37 36 34 31 29 29 30 30 30 31 30 29 28 27 26 26 26 26 26 25 23 22 22 22 22 22 24 25 25 27 29 31 32 33 34 35 35 34 34 35 37 38 38 37 38 39 39
73 70 70 69 63 60 60 56 57 66 69 64 61 57 55 54 53 53 52 50 48 46 46 48 47 45 45 46 47 45 42 40 39 39 39 39 40 39 38 37 35 33 30 30 30 30 30 31 31 30 30 29 28 27 27 26 26 26 24 23 23 22 22 22 24 25 26 27 29 31 32 33 33 35 35 35 35 37 39 40 39 37 37 38 38
71 67 66 64 60 60 62 56 52 61 68 67 65 60 56 55 54 54 53 52 50 49 49 50 47 44 45 46 47 45 42 40 38 38 39 40 40 41 39 38 36 34 32 31 31 31 30 31 31 31 30 30 29 28 28 28 27 27 26 24 24 23 22 23 24 25 26 27 29 30 32 33 33 35 35 35 36 39 41 41 39 36 36 37 38
69 65 64 63 59 58 62 60 55 58 64 67 67 63 59 56 56 55 54 53 52 52 52 52 48 45 46 47 47 45 43 41 39 39 39 39 40 41 40 38 38 35 32 32 32 32 32 31 31 31 31 31 31 29 29 30 29 28 27 26 24 24 24 24 24 25 26 27 29 30 32 33 34 35 35 35 38 40 41 41 39 36 35 37 37
70 67 65 66 63 56 54 53 51 51 55 63 67 65 61 58 57 57 56 55 55 55 54 53 49 48 48 48 47 46 44 43 42 41 40 38 38 40 41 39 39 37 34 33 33 34 33 32 31 30 31 32 32 30 30 31 31 29 28 27 26 25 25 24 25 25 26 27 28 30 31 33 34 35 35 36 39 41 42 41 39 36 35 37 37
72 71 69 71 72 65 59 58 55 50 51 59 65 65 63 60 59 59 59 58 58 58 57 56 53 52 51 50 48 46 45 45 45 42 40 38 37 39 41 40 40 39 36 34 34 35 35 34 31 30 31 33 33 31 31 32 32 31 28 27 27 27 26 26 26 26 27 27 28 29 30 32 34 35 35 37 40 42 42 41 37 34 35 36 37
74 74 73 74 76 73 65 61 61 59 56 58 63 66 66 64 62 61 60 60 61 61 60 58 56 54 53 52 49 45 43 45 47 44 41 39 38 40 42 42 42 41 39 36 35 36 36 35 32 30 31 33 33 32 32 33 33 32 29 28 28 28 27 28 28 27 27 28 28 29 30 31 33 35 36 38 40 42 43 40 35 33 34 35 36
78 76 76 76 77 75 67 59 59 62 62 62 64 66 66 66 66 64 62 62 62 62 61 59 57 56 55 53 52 47 41 42 47 46 43 41 40 41 43 42 42 43 41 37 37 37 37 36 34 31 31 32 33 33 33 34 34 32 30 29 29 29 29 29 29 29 29 29 30 30 30 31 33 35 36 38 39 42 42 37 32 32 33 34 36
78 77 78 77 76 76 72 65 61 63 65 65 65 66 67 68 68 68 67 65 63 60 58 57 57 57 56 55 55 52 44 41 45 47 45 45 44 44 44 43 43 43 41 39 38 38 38 37 34 31 31 32 33 34 35 35 34 33 31 30 29 29 30 30 30 30 30 31 31 32 32 32 33 34 36 37 39 42 40 34 30 32 33 33 35
78 76 76 77 76 76 76 73 68 67 69 69 67 66 67 67 66 67 68 68 67 63 60 58 57 57 56 55 57 57 50 44 46 47 47 46 46 46 46 45 44 43 41 41 40 39 39 38 35 32 31 32 33 34 36 37 36 33 32 31 29 29 30 31 31 31 32 32 33 34 34 33 34 35 36 37 39 41 38 32 30 32 32 33 35
74 74 72 73 75 76 78 77 74 71 72 74 72 69 69 68 67 67 67 68 69 68 65 64 62 60 58 56 57 60 57 51 49 50 49 47 47 47 48 48 46 43 41 41 41 40 39 39 36 33 31 32 33 34 36 38 37 34 33 32 30 30 32 34 33 33 33 34 36 37 36 35 35 36 37 37 39 40 37 32 30 32 32 33 35
64 66 68 71 74 77 78 79 76 72 71 73 74 74 73 73 73 72 71 71 71 71 69 67 65 63 62 60 59 60 59 55 53 53 52 50 49 48 49 49 47 43 42 42 41 40 40 39 36 34 33 32 34 35 37 39 40 37 34 33 32 32 35 36 35 35 36 37 38 39 39 37 36 36 37 37 38 38 36 32 31 32 32 33 35
56 57 60 65 70 74 77 77 76 72 70 70 71 72 73 74 75 75 75 73 73 73 72 71 70 67 66 66 64 62 60 57 55 54 54 53 52 51 50 49 46 43 43 43 42 41 41 39 37 35 34 33 35 37 38 40 41 39 35 35 35 34 36 37 36 36 37 38 39 41 41 39 38 37 37 37 38 37 35 33 32 32 32 33 34
52 50 51 56 61 64 67 70 72 71 70 69 69 69 71 73 74 74 74 74 74 73 71 72 75 73 69 67 66 64 62 58 55 55 56 55 54 53 52 49 47 45 45 44 43 43 42 40 38 36 35 35 36 39 39 41 42 38 36 37 36 35 34 35 35 36 37 39 41 41 41 40 38 37 37 37 37 36 35 33 33 32 32 33 34
52 48 47 51 56 58 59 62 66 68 68 67 66 67 69 71 73 73 73 73 74 73 71 72 75 75 72 70 67 65 64 62 59 56 56 57 56 55 53 51 49 48 47 46 44 43 43 42 40 38 36 36 38 40 41 42 42 38 37 37 35 33 33 33 34 36 38 39 41 42 41 40 38 37 37 37 36 36 34 33 33 32 32 33 34
52 48 46 49 54 56 55 56 59 61 63 63 64 66 67 69 71 74 74 73 73 73 72 73 75 75 73 72 69 63 60 63 63 59 58 59 60 58 55 53 52 51 49 47 46 45 45 45 41 39 38 38 40 41 42 43 41 38 37 36 34 32 33 33 35 38 39 40 42 41 40 38 37 37 37 37 36 35 34 33 32 32 32 33 34
49 47 46 47 50 54 54 53 54 57 59 61 63 65 66 68 69 72 74 74 73 73 73 74 75 76 74 73 70 64 58 59 63 64 62 62 63 63 60 57 56 54 51 49 48 47 46 45 43 41 40 40 41 42 43 43 41 39 38 36 34 34 35 36 38 39 40 41 42 39 36 36 37 37 36 36 36 34 33 33 32 31 32 33 34
45 44 44 44 47 53 54 50 50 54 57 59 61 63 64 66 67 70 73 73 73 74 74 74 74 75 74 72 70 67 61 55 54 60 65 65 64 63 63 61 58 56 54 52 50 49 47 46 44 44 43 41 42 43 44 43 42 41 39 37 36 37 38 39 40 40 41 41 39 35 35 37 37 36 35 36 35 33 32 32 31 31 32 33 34
42 41 41 41 45 51 53 49 47 51 54 57 59 61 63 64 64 66 71 74 74 74 73 72 71 70 70 70 68 67 66 60 53 52 58 65 65 62 62 63 61 57 56 54 52 50 49 48 47 46 45 43 43 44 44 44 43 41 39 39 39 40 41 42 42 41 42 42 39 36 37 37 35 34 34 35 33 31 31 31 30 30 32 33 33
40 39 38 39 43 48 51 48 47 49 52 54 56 58 60 63 63 63 66 71 74 74 73 72 71 68 67 68 68 67 68 67 62 55 54 59 63 62 61 63 63 59 56 55 53 51 51 50 48 47 46 43 43 43 44 46 44 41 39 40 41 42 44 44 44 43 43 43 41 39 37 35 33 33 33 33 32 30 30 30 30 31 32 33 33
39 38 37 39 42 47 48 47 46 47 49 52 54 56 58 61 63 62 63 65 67 70 71 72 71 69 67 68 68 68 67 67 66 62 58 55 57 59 62 64 64 61 58 56 55 54 54 52 50 48 46 43 42 43 45 46 46 42 40 41 43 45 45 45 44 44 44 43 41 39 37 35 33 32 32 32 31 30 29 29 29 31 32 33 33
39 39 39 39 42 45 46 45 46 47 49 50 52 54 56 58 60 60 60 61 61 63 66 68 68 67 67 67 68 69 68 66 63 62 60 58 55 56 60 64 66 64 62 60 59 58 57 55 52 50 46 43 42 44 46 47 45 42 41 43 45 46 46 44 43 44 44 42 40 39 38 36 33 31 31 31 30 29 28 28 29 31 32 32 32
41 40 40 40 41 43 44 45 45 46 48 49 51 53 53 53 54 56 57 57 58 59 60 63 64 65 64 64 64 65 65 65 64 61 59 59 57 55 57 62 65 65 64 63 62 61 59 56 54 52 48 44 43 45 46 45 44 42 42 44 46 47 47 44 43 45 47 44 40 39 39 38 34 32 31 30 29 28 27 28 30 31 31 32 31
43 41 39 39 39 40 40 43 45 45 46 47 48 50 50 49 49 51 52 53 54 55 56 57 60 62 62 60 60 60 60 61 62 60 58 59 60 58 58 61 64 65 66 67 65 61 59 57 55 52 48 44 44 45 45 44 43 42 43 45 46 47 46 43 45 49 49 42 37 37 38 39 36 33 31 30 29 27 26 27 30 31 31 31 31
41 42 41 39 39 38 37 39 41 43 44 44 44 46 47 47 46 46 47 49 51 52 52 52 54 57 59 57 55 57 58 58 58 57 56 58 60 61 62 63 63 65 68 70 66 60 59 59 55 50 45 44 44 45 44 44 42 42 45 47 46 46 45 44 47 51 48 41 38 37 37 38 37 34 32 29 27 26 26 28 30 31 31 31 30
34 38 39 39 39 38 38 38 40 41 42 41 41 41 42 44 45 44 43 45 47 47 47 47 47 51 54 53 50 50 52 54 54 53 53 54 57 61 64 64 62 64 70 70 64 58 58 59 57 52 46 43 45 45 44 42 42 44 46 47 46 46 45 43 45 49 50 50 48 42 37 37 37 34 31 28 26 24 26 28 30 30 30 30 30
28 31 34 36 37 39 39 39 40 41 40 39 39 39 39 40 41 41 40 41 43 43 42 42 43 46 49 51 49 47 48 50 51 52 51 50 50 55 61 62 61 64 68 67 60 56 56 57 57 54 49 44 44 45 43 41 43 45 46 46 46 45 43 42 44 48 52 54 51 43 37 36 35 32 30 28 25 24 27 29 30 30 29 29 29
24 27 30 33 34 36 37 38 39 39 40 40 39 38 37 36 37 37 36 37 38 39 39 40 41 43 45 47 49 49 49 49 49 49 51 53 53 54 56 58 59 63 66 63 58 56 56 56 55 54 51 48 46 44 41 42 45 46 46 46 45 43 41 41 41 44 49 53 49 40 35 34 32 30 29 27 25 25 28 30 30 29 28 28 29
22 25 28 31 33 34 34 36 37 38 39 39 38 37 36 35 34 34 34 36 37 37 37 38 41 42 43 45 47 50 51 50 47 44 46 52 57 58 57 57 60 65 65 62 57 54 52 53 53 52 51 49 46 43 41 44 47 46 46 47 45 41 39 38 37 39 45 49 44 35 31 31 31 30 29 27 25 27 29 30 29 28 28 28 29
24 26 27 30 32 34 34 34 35 36 36 36 36 37 37 36 34 34 35 36 37 37 36 37 39 40 42 43 46 48 49 49 47 44 41 43 48 52 54 57 62 66 65 60 56 52 50 49 49 50 49 47 45 44 45 47 47 46 46 47 45 42 41 40 38 39 42 42 38 34 33 34 33 30 29 28 27 28 30 30 29 28 28 29 29
22 23 24 26 29 31 31 31 31 31 31 31 33 35 37 36 35 35 35 36 37 37 36 36 37 39 41 42 44 46 47 49 51 51 47 45 46 49 52 55 61 65 63 58 54 51 48 47 48 48 47 46 46 47 48 48 47 47 47 46 44 43 43 41 40 40 40 40 39 39 38 37 34 31 30 29 29 29 30 30 29 28 28 29 29
16 18 20 22 24 25 27 28 28 27 27 27 28 30 33 34 34 34 34 34 35 34 34 34 35 37 40 42 42 43 44 46 49 50 49 47 48 49 52 56 62 63 60 55 52 49 47 47 48 48 47 48 49 50 50 49 48 48 47 45 44 45 44 42 41 40 40 41 43 42 39 36 35 34 33 32 31 30 30 30 30 29 29 29 29
14 15 17 19 21 22 22 23 24 25 25 26 26 28 30 31 32 32 31 31 31 31 31 32 32 34 37 39 40 40 41 42 44 44 43 44 46 47 50 55 59 59 55 52 50 48 48 48 48 47 48 50 51 51 51 50 48 47 46 46 46 46 45 42 41 41 43 44 43 41 38 36 35 36 37 35 33 31 31 30 30 29 29 29 29
17 15 15 17 19 19 19 19 20 22 23 24 26 28 29 30 30 30 30 30 29 29 30 31 31 32 34 37 38 39 40 41 40 39 38 38 41 44 48 53 55 53 50 49 49 49 49 49 49 50 52 53 53 52 52 50 48 47 47 48 48 48 45 42 41 42 43 42 40 38 38 38 38 40 41 39 34 32 31 31 30 29 29 29 29
18 16 15 15 16 17 18 18 19 20 21 23 25 26 28 28 29 29 29 29 29 28 28 29 30 30 32 34 36 38 40 41 40 38 35 35 38 41 46 51 52 50 47 47 48 50 51 51 52 53 54 55 54 53 51 50 48 48 49 50 49 48 45 43 41 41 41 41 40 41 41 40 40 42 42 39 35 32 31 31 29 29 28 28 28
20 19 18 17 16 17 17 17 17 18 19 21 23 25 27 28 28 28 29 29 28 27 27 28 29 29 29 31 35 36 35 36 38 37 35 36 39 41 42 45 46 46 45 44 44 46 50 52 53 54 55 55 54 52 50 50 50 50 50 50 49 47 45 43 41 40 41 42 44 44 42 42 43 43 41 37 34 32 31 30 29 28 28 28 28
23 23 23 21 20 19 18 17 17 17 18 19 21 23 24 26 27 28 29 30 29 28 27 29 30 29 28 29 32 33 31 30 33 34 34 37 41 43 42 43 43 45 47 47 46 46 49 51 53 54 55 55 53 51 50 50 52 52 52 50 49 47 45 43 42 41 41 43 45 45 44 46 47 44 39 36 34 32 31 30 28 27 27 27 28
21 22 22 22 20 20 19 18 19 19 19 18 19 20 21 23 25 27 29 29 29 28 27 29 30 30 28 28 30 31 30 30 32 32 31 33 36 39 42 44 45 47 50 51 50 49 51 52 53 54 54 52 51 51 51 51 51 52 51 50 48 47 46 45 44 44 44 44 45 45 46 49 48 44 40 37 34 32 31 30 28 27 27 27 27
18 16 18 20 20 19 18 19 20 21 21 19 18 18 18 19 22 24 27 28 28 28 28 28 29 30 31 30 29 29 28 28 30 31 31 32 33 34 37 42 45 47 49 49 48 49 50 51 52 52 52 50 51 51 51 50 50 50 49 48 48 47 47 47 48 47 46 44 44 46 48 51 51 46 41 37 34 33 31 30 28 28 28 27 27
17 15 16 18 19 18 17 17 19 21 22 20 18 17 16 16 17 19 21 24 25 26 27 28 30 32 34 34 32 29 26 24 24 28 32 35 35 34 34 39 44 45 43 42 44 46 47 47 48 48 49 49 50 50 50 49 49 49 48 48 48 48 48 48 47 46 44 44 45 49 53 54 51 46 40 36 35 34 32 30 29 28 27 27 27
20 20 21 22 20 19 18 18 18 19 20 19 18 17 15 13 12 13 16 19 21 23 25 27 28 31 35 37 37 34 30 26 24 25 29 34 36 36 35 37 41 43 42 41 42 42 41 41 42 43 44 45 46 47 48 49 49 49 50 50 50 49 46 44 43 44 44 46 49 53 54 51 46 41 38 36 35 35 32 30 29 27 27 28 28
22 23 25 24 22 21 21 20 18 18 17 18 18 17 14 11 9 10 12 14 16 18 21 24 27 29 33 36 39 39 37 33 29 28 29 31 34 35 35 35 37 38 39 40 40 40 40 41 42 42 43 44 45 47 48 49 50 51 51 52 51 48 44 41 42 45 47 50 52 52 48 43 39 38 37 36 36 34 32 29 28 27 28 29 29
23 24 23 22 22 22 22 21 20 19 18 17 17 17 15 13 11 10 11 12 13 14 16 19 23 27 30 33 35 37 36 34 32 32 32 33 35 36 36 37 38 39 40 41 42 43 44 44 44 45 45 45 46 47 48 48 49 49 48 46 45 45 43 40 41 44 48 50 51 49 44 40 37 36 36 36 35 33 31 29 28 28 28 29 29
Wind_Direction
223 223 225 228 229 230 232 234 235 233 232 233 234 237 236 233 231 229 226 227 230 234 235 236 239 241 243 251 259 261 263 263 263 262 261 263 269 273 277 284 292 300 306 309 311 311 311 309 307 307 307 307 307 310 314 316 318 320 322 324 325 327 328 328 328 328 329 329 329 327 324 322 321 320 318 317 318 318 321 325 328 332 336 337 336
222 221 222 224 226 228 229 231 233 232 230 230 233 235 235 233 229 224 223 225 230 234 234 235 238 240 241 249 256 258 260 262 263 264 261 261 265 270 274 280 287 295 301 306 309 311 312 311 307 304 305 304 304 307 311 314 316 317 320 323 324 326 328 327 328 331 332 331 330 329 327 325 324 322 319 317 318 318 321 325 328 332 336 337 336
225 223 222 221 222 225 227 229 231 231 230 230 231 232 234 233 228 223 223 225 229 234 237 237 239 240 241 248 254 255 256 258 261 264 263 260 262 266 271 276 282 290 296 301 306 310 313 312 307 303 302 301 301 303 307 311 313 315 319 321 323 325 327 327 328 331 332 332 331 331 330 329 329 326 321 318 318 319 321 324 328 332 335 336 336
227 226 226 225 223 223 224 226 228 228 228 228 229 229 231 231 228 225 225 226 230 235 239 239 240 240 241 245 250 252 252 255 258 261 262 260 259 262 268 272 278 285 292 296 302 308 311 311 307 303 301 300 299 301 303 307 311 314 318 320 321 324 326 327 328 330 331 331 332 332 331 331 333 332 327 323 320 321 322 324 327 331 334 335 335
234 233 230 228 227 226 225 223 223 225 225 226 226 227 228 229 228 226 226 229 232 235 238 239 240 241 241 242 246 248 249 251 254 256 258 258 257 259 264 269 274 280 287 292 297 303 308 309 306 303 301 299 298 299 301 304 308 312 317 319 320 322 324 325 327 327 327 329 330 330 330 331 333 335 334 328 323 322 322 323 326 329 332 334 334
235 232 229 227 227 228 226 224 221 221 223 224 224 226 227 228 228 227 228 230 233 234 236 239 240 240 240 241 243 246 246 248 251 253 254 255 255 257 261 266 270 275 282 288 293 298 304 307 306 304 301 299 298 297 299 302 305 310 314 318 319 320 321 322 323 323 322 325 328 328 329 331 332 335 336 332 326 323 322 322 324 327 330 332 333
231 228 227 227 229 231 228 226 224 222 222 225 225 225 227 227 228 229 230 231 232 232 233 235 238 238 238 240 242 243 244 246 248 251 253 253 254 255 258 263 267 271 277 283 288 293 299 303 305 304 303 300 297 296 297 299 302 307 311 315 317 317 317 317 317 317 318 321 325 326 327 329 330 332 333 332 328 324 322 322 322 324 328 330 332
228 227 228 230 236 240 234 229 228 224 223 227 228 226 226 226 227 229 230 231 230 229 230 232 234 236 237 240 242 242 242 243 246 250 253 254 254 253 255 259 264 268 272 277 282 288 294 300 302 303 303 301 298 295 296 297 299 303 307 311 313 312 312 313 312 313 315 318 321 323 324 325 327 328 329 329 328 326 324 323 322 323 326 329 331
230 230 233 234 240 243 235 229 227 224 222 225 227 227 226 224 226 228 228 229 229 228 228 229 230 233 235 239 241 242 242 243 245 249 252 255 255 252 251 255 260 264 267 272 277 282 289 295 299 300 301 301 299 296 295 296 297 299 302 306 309 308 309 309 309 310 313 315 317 319 321 323 324 325 325 326 327 327 325 324 322 323 325 328 331
234 234 235 234 237 238 230 226 225 221 221 222 224 227 227 225 225 226 226 228 230 230 229 228 228 230 233 237 241 243 244 244 246 249 251 254 255 251 248 251 256 261 264 268 272 277 283 288 293 296 298 299 299 296 295 295 296 297 300 302 304 305 307 307 307 309 311 312 313 315 317 320 321 322 322 323 325 326 326 324 323 323 325 328 331
233 233 231 230 234 233 227 225 224 221 221 221 222 225 226 226 226 225 226 227 229 232 233 231 231 230 231 235 239 243 245 245 246 248 250 253 254 251 248 249 254 258 261 265 269 273 277 282 287 291 294 297 298 296 294 295 295 296 298 300 301 302 304 305 306 307 308 308 309 311 313 316 318 318 319 321 323 325 325 324 323 324 326 329 331
230 229 227 227 229 227 224 226 228 229 227 222 221 224 226 226 226 225 226 227 228 232 235 235 236 235 234 234 237 241 245 246 245 246 248 251 253 251 249 249 253 256 259 262 266 269 273 277 282 287 291 293 294 295 294 294 294 295 297 298 299 299 301 303 305 305 305 305 305 307 310 312 314 315 316 318 320 322 323 323 323 324 326 329 330
230 227 225 225 223 219 221 227 233 237 232 222 220 225 227 226 226 225 226 229 230 232 234 235 238 239 238 236 236 240 243 244 243 244 246 249 251 251 250 251 253 256 258 260 262 266 270 273 277 283 287 289 291 293 293 292 294 295 296 297 296 296 298 300 302 303 303 303 303 304 306 308 311 312 313 315 317 319 321 322 322 323 326 328 328
233 230 227 225 225 226 231 236 238 241 235 224 222 225 227 228 227 226 227 230 231 234 235 235 237 240 239 236 234 237 241 242 241 241 243 247 250 250 251 251 254 257 258 259 260 263 267 270 274 279 283 286 289 291 291 291 292 294 295 296 294 293 294 296 298 300 301 301 301 302 304 306 308 310 312 314 316 318 320 321 321 323 326 327 326
235 234 232 229 229 232 235 237 238 239 236 230 225 224 227 229 228 226 227 230 233 234 235 236 237 239 238 234 232 235 239 240 240 239 240 243 247 249 250 251 253 257 258 258 259 261 264 267 271 275 280 282 286 289 289 288 290 292 294 294 292 291 292 293 294 297 298 299 299 301 303 304 306 308 311 313 316 318 320 321 321 322 324 325 324
234 235 235 234 234 234 234 234 233 232 232 231 228 226 227 228 228 228 229 232 233 234 234 234 235 237 236 234 233 235 238 240 241 239 238 240 243 247 249 251 253 256 258 258 258 260 262 265 269 272 276 279 282 287 288 287 288 290 292 292 291 291 291 292 293 295 296 297 299 300 302 304 305 307 310 313 316 319 320 320 320 321 323 322 322
235 235 235 236 237 237 236 233 230 228 228 228 228 228 229 229 230 231 232 232 232 233 233 232 232 234 236 237 237 236 238 241 242 240 238 238 241 244 247 250 252 255 257 257 256 258 260 263 267 270 274 277 280 284 287 286 286 288 289 290 290 291 292 292 292 293 295 296 298 299 302 304 306 307 309 313 318 320 319 318 318 320 321 320 320
236 236 235 235 237 238 239 237 234 231 229 227 226 226 227 229 231 232 233 234 233 233 232 232 233 234 236 239 239 238 239 242 242 241 239 238 240 243 245 248 250 253 256 255 254 256 259 261 264 268 273 275 278 282 286 286 285 286 287 288 290 291 292 292 293 295 296 296 297 299 301 304 306 307 310 313 317 318 317 315 316 319 319 319 319
235 236 237 236 236 238 238 239 239 236 231 228 227 226 226 227 228 229 232 235 237 237 235 234 235 236 236 237 238 236 237 240 241 240 239 238 239 242 244 246 248 251 254 254 254 255 257 259 262 266 271 273 275 279 283 284 283 282 283 286 290 292 291 291 294 297 296 296 297 299 301 303 305 307 310 312 314 316 314 313 315 318 317 317 318
232 234 236 237 238 238 239 240 241 238 233 229 229 229 228 228 230 231 232 234 236 239 240 240 238 236 236 236 236 235 235 237 240 241 239 237 238 240 243 245 247 249 251 252 252 253 255 257 260 264 269 271 273 276 279 280 280 279 281 285 288 289 288 289 293 296 295 296 298 298 299 301 303 306 309 310 312 313 312 311 314 316 315 316 317
230 232 235 236 237 238 239 239 238 236 233 231 230 231 231 231 232 232 233 234 235 236 240 242 242 240 237 236 236 236 235 237 241 243 242 240 238 239 242 244 245 247 248 249 250 251 253 256 258 261 267 269 270 272 274 276 277 279 282 284 285 286 286 288 292 296 297 298 298 298 298 300 301 304 306 307 309 311 309 308 311 313 313 315 316
230 234 237 236 236 235 234 234 233 232 231 231 230 230 232 232 233 233 232 233 234 235 236 239 241 242 242 239 236 236 236 237 239 243 246 246 243 241 242 243 244 246 245 246 248 249 250 254 256 259 264 266 266 267 270 273 275 278 282 283 284 286 287 289 293 298 299 299 298 297 297 297 299 303 304 303 306 309 307 305 308 311 312 314 315
231 236 240 237 235 234 232 231 231 231 230 230 230 230 230 231 233 233 232 232 233 234 235 236 238 240 242 242 239 238 238 238 238 239 243 247 248 247 245 243 243 244 244 244 247 248 249 252 255 258 261 262 263 264 267 270 273 277 281 282 283 286 288 291 295 297 298 299 299 298 296 296 299 301 301 301 304 306 303 302 306 309 310 312 313
234 239 242 238 232 231 231 230 231 231 230 229 229 228 228 229 231 233 233 232 231 232 233 236 237 238 240 242 242 241 239 239 239 238 238 241 244 246 248 246 244 243 243 243 244 246 247 249 253 257 259 259 260 262 264 267 272 276 279 280 282 285 289 292 294 296 298 300 299 297 294 294 298 300 298 299 302 302 299 300 304 307 309 311 311
238 242 244 240 232 227 227 229 230 231 231 231 229 227 227 229 231 232 232 233 233 232 232 234 236 238 239 240 241 242 242 240 239 239 238 238 239 240 243 246 246 244 242 242 243 245 247 248 251 255 257 257 258 260 263 266 270 274 275 277 280 285 289 290 292 295 298 300 300 297 291 290 296 298 296 296 299 298 296 298 302 304 307 309 309
237 239 240 240 235 228 227 229 231 230 231 231 230 229 228 229 231 232 232 233 234 234 233 233 234 237 239 240 241 242 244 243 241 239 238 239 240 240 238 240 244 245 243 241 241 243 245 246 249 252 255 256 256 258 261 265 268 271 273 275 279 284 287 289 291 295 298 300 298 292 285 286 292 294 292 293 294 293 294 297 299 302 305 307 306
232 234 235 237 235 230 228 231 232 232 232 232 232 232 231 231 232 233 232 233 234 235 235 234 234 236 239 241 242 243 244 245 245 243 239 239 241 241 239 237 240 244 243 241 240 242 243 244 247 250 252 254 254 255 259 264 266 268 272 275 277 280 284 288 291 294 297 298 293 286 281 283 287 289 289 290 289 288 292 295 297 299 303 304 304
234 234 236 238 236 232 231 233 234 234 235 235 234 235 234 234 235 235 234 233 234 236 236 236 236 237 238 239 241 243 244 244 245 245 244 241 241 242 241 239 239 242 243 241 240 241 242 243 244 247 249 252 252 253 257 263 265 266 270 274 277 279 282 287 291 293 295 295 290 285 282 282 284 286 287 285 283 285 290 293 294 297 301 302 302
236 237 238 239 238 236 235 236 236 237 238 239 238 237 237 237 238 238 237 236 236 237 237 237 237 238 239 238 239 242 244 245 246 246 245 244 243 243 242 241 241 242 242 241 239 240 242 243 243 245 247 249 251 252 255 259 263 266 270 274 276 278 281 286 289 291 294 294 289 284 281 280 282 286 285 280 279 284 289 289 291 294 298 300 301
237 238 240 241 240 239 238 239 239 240 241 242 242 241 240 240 242 242 242 243 244 242 239 237 237 238 240 239 240 242 245 246 247 247 245 243 244 245 243 241 242 242 241 240 238 238 241 242 241 242 244 245 247 250 254 257 262 267 270 273 276 277 281 285 288 290 293 293 289 283 278 277 281 284 281 277 278 283 285 285 287 292 296 299 301
238 240 240 239 239 239 239 239 240 241 242 244 245 245 244 245 247 248 248 249 250 249 245 241 238 237 238 240 242 243 245 245 245 247 247 244 244 246 245 243 243 242 241 240 239 238 240 241 239 239 240 242 243 247 252 256 261 265 269 272 274 277 281 286 288 289 291 289 287 284 279 275 279 283 279 276 278 281 281 281 285 290 294 297 300
239 241 241 237 235 237 239 239 240 241 242 245 247 248 248 250 252 254 254 253 253 252 251 248 243 240 239 242 245 245 245 245 245 246 248 248 247 248 248 246 245 243 240 239 238 238 239 240 240 238 238 240 242 246 250 254 259 264 267 270 273 277 281 284 286 286 285 280 280 284 280 274 275 280 279 276 276 276 276 279 283 288 293 296 299
238 239 240 238 235 235 238 239 241 243 245 247 250 251 252 255 256 256 257 256 255 254 254 252 249 243 240 243 246 246 245 246 246 245 246 248 248 248 248 248 246 243 238 236 236 237 237 239 240 240 240 240 242 245 249 252 257 262 265 268 272 276 279 283 286 285 280 271 271 280 278 270 271 278 277 274 272 270 272 276 281 286 292 295 297
236 235 236 235 233 233 236 240 244 248 249 250 252 254 256 258 258 256 256 257 257 256 255 254 253 246 240 240 244 245 244 244 245 245 246 246 246 246 246 244 243 238 233 232 234 235 235 237 239 241 241 239 240 243 247 250 255 260 263 267 270 274 278 283 285 285 280 271 270 274 271 264 268 276 275 270 267 265 267 272 278 284 290 293 294
237 235 233 232 231 232 237 242 247 250 251 251 252 254 256 257 257 256 255 256 256 256 253 251 251 248 243 241 244 246 244 242 244 246 246 245 246 246 243 240 236 231 229 230 232 233 234 235 237 239 240 240 240 242 245 248 253 258 262 266 269 273 279 283 284 286 283 274 268 268 266 262 267 275 274 266 261 260 264 269 275 282 288 291 292
240 237 235 234 233 235 238 243 247 250 251 251 252 253 254 255 257 257 254 251 250 250 248 246 244 245 244 244 246 247 245 245 249 250 247 245 247 246 243 239 234 229 228 230 231 231 234 236 236 237 240 240 240 241 243 246 251 256 260 265 269 273 279 284 287 290 287 279 271 267 264 263 270 276 272 262 257 257 261 267 274 281 286 288 290
244 240 238 237 237 238 240 245 249 251 252 253 252 252 254 256 256 255 252 247 243 242 243 242 241 241 242 243 245 246 246 247 250 248 245 246 247 246 243 240 233 228 228 229 228 229 234 236 235 235 237 238 238 240 241 244 249 255 259 263 267 270 276 281 285 287 287 284 280 273 266 270 277 277 267 259 255 255 259 266 273 279 284 287 288
247 244 241 238 238 239 242 247 250 251 252 253 251 250 252 255 253 250 248 246 242 240 240 240 240 241 242 242 243 244 246 246 243 240 243 251 251 247 244 240 232 227 227 226 225 228 232 234 233 234 235 235 235 237 239 243 248 253 258 262 265 269 273 278 282 286 287 287 284 277 274 278 280 273 262 257 255 254 259 265 271 277 282 285 287
245 243 241 237 236 238 242 247 249 251 252 252 251 249 249 249 247 246 246 245 243 242 241 241 241 241 242 243 242 242 243 243 242 243 250 256 254 248 245 239 231 227 227 226 224 226 229 231 232 233 232 233 234 236 239 243 247 252 256 260 265 269 272 276 281 285 286 285 281 278 277 279 277 270 262 256 254 255 259 265 270 275 280 283 285
246 243 241 240 240 242 245 247 248 249 250 251 251 249 247 245 245 246 246 245 243 242 244 246 245 244 243 244 243 241 241 242 243 246 252 255 252 248 244 237 230 227 227 226 224 225 228 230 231 231 231 232 234 236 239 242 246 251 255 259 264 267 270 274 279 284 284 281 277 274 274 275 275 270 263 256 253 255 259 263 268 273 277 281 285
251 245 243 242 243 246 249 251 250 250 251 251 250 248 247 247 247 247 246 244 244 245 248 250 250 249 246 245 243 242 240 240 241 244 249 252 251 247 241 234 228 227 226 224 222 224 227 228 228 229 232 233 234 236 239 242 247 252 256 260 263 265 268 273 279 283 283 279 274 270 270 272 273 269 264 257 253 253 257 262 267 271 275 280 283
262 257 251 248 247 250 255 256 255 253 252 251 250 249 248 247 246 244 244 245 247 250 252 251 251 251 249 245 242 240 239 239 241 245 249 251 249 244 237 230 226 226 226 224 222 223 224 225 225 227 229 232 233 236 239 243 248 253 256 259 262 265 268 273 278 283 283 279 273 271 273 274 272 269 263 256 251 251 255 261 265 269 274 279 282
268 267 264 260 259 261 262 262 261 260 258 256 254 252 250 248 245 242 243 247 251 254 253 250 248 250 249 245 239 237 237 239 242 246 247 246 244 240 234 229 227 227 226 226 227 226 224 223 224 226 228 230 233 236 240 244 249 252 256 259 262 265 268 273 278 283 283 278 273 274 273 269 265 262 257 250 247 249 254 259 262 266 272 278 280
261 264 265 266 266 266 266 266 265 264 262 261 259 256 254 251 247 243 242 245 249 253 254 251 247 246 247 244 239 235 236 240 245 247 245 239 236 235 232 228 228 229 227 225 225 225 223 222 224 226 227 230 233 236 241 245 249 251 255 258 261 264 269 273 279 283 281 275 273 273 266 255 250 251 248 244 244 248 252 256 260 265 271 277 279
256 259 262 264 265 266 267 265 264 264 263 262 261 259 256 253 249 245 242 243 245 248 249 249 245 242 243 243 240 235 233 236 243 246 243 236 233 234 230 224 221 223 225 225 223 220 220 222 224 225 227 230 233 237 241 245 248 251 254 257 260 265 269 273 277 279 277 274 272 268 257 245 243 244 242 240 242 247 250 252 257 263 270 275 276
254 258 261 262 261 262 261 259 258 262 264 261 258 257 256 253 250 247 243 241 242 242 243 243 241 239 239 239 236 232 229 230 235 239 238 233 231 231 229 223 216 212 216 222 223 221 221 223 225 227 230 232 235 237 241 245 248 251 254 257 261 265 269 273 276 278 276 273 270 263 251 243 242 243 241 240 243 246 248 249 255 262 269 272 273
250 256 264 266 262 258 257 254 253 257 262 264 264 263 259 254 251 249 246 243 240 238 238 238 236 234 234 233 230 227 227 228 229 231 231 230 229 228 228 228 224 216 212 217 223 225 226 228 231 233 235 236 236 238 242 246 249 252 256 259 263 266 270 274 275 275 272 268 263 258 250 244 242 242 242 242 244 244 244 247 254 262 267 269 271
242 238 246 256 259 258 257 256 255 257 262 265 267 268 266 258 251 247 246 245 242 239 237 236 233 231 231 230 228 227 228 230 230 229 227 226 227 227 229 230 229 224 220 222 227 229 231 233 236 237 238 238 237 239 242 246 251 255 259 262 264 268 271 273 272 270 267 263 258 253 247 242 240 240 241 243 244 242 242 248 256 262 265 267 268
239 234 236 244 253 258 258 256 255 257 261 263 265 268 271 269 260 251 246 243 242 241 239 236 233 230 230 230 229 229 230 232 233 233 230 226 226 229 232 233 230 228 228 229 229 229 231 234 236 237 238 239 240 243 247 251 255 258 261 263 265 268 270 269 267 265 263 257 249 244 240 239 239 241 243 244 243 241 245 253 260 262 264 266 267
238 238 240 244 251 256 256 254 253 253 256 259 263 266 270 270 266 261 257 251 244 241 240 237 234 231 230 230 230 232 234 236 236 234 230 227 227 229 231 232 229 228 229 230 231 233 235 236 237 239 241 243 246 250 253 256 259 261 261 262 264 265 264 262 262 261 256 246 239 236 236 239 241 243 244 243 241 243 249 258 262 263 265 267 268
238 240 242 245 249 251 253 253 253 252 252 254 256 258 261 259 253 252 259 260 254 247 244 239 235 232 231 231 231 232 234 237 237 233 229 227 227 229 231 232 233 233 234 235 237 238 240 241 242 243 245 247 249 252 254 256 258 259 259 259 258 256 255 255 256 255 249 241 236 236 238 240 240 240 240 240 242 247 255 260 262 263 265 267 270
Height
5736 5741 5747 5752 5756 5759 5762 5766 5769 5772 5775 5778 5781 5784 5786 5789 5791 5794 5796 5799 5801 5804 5807 5809 5810 5811 5813 5814 5814 5815 5816 5817 5817 5817 5818 5819 5819 5819 5819 5819 5818 5818 5817 5816 5815 5814 5813 5812 5810 5809 5808 5807 5806 5805 5803 5802 5801 5800 5799 5798 5797 5796 5795 5794 5793 5793 5791 5789 5787 5786 5784 5783 5781 5779 5776 5773 5770 5768 5765 5763 5760 5756 5753 5749 5745
5729 5731 5735 5741 5746 5751 5755 5758 5762 5765 5769 5772 5775 5778 5780 5783 5785 5787 5790 5793 5796 5800 5803 5805 5806 5807 5808 5809 5810 5811 5812 5813 5813 5814 5815 5816 5816 5816 5816 5816 5815 5815 5815 5814 5812 5811 5810 5809 5808 5807 5806 5804 5803 5802 5801 5800 5798 5797 5796 5796 5795 5794 5793 5791 5790 5790 5788 5786 5785 5783 5781 5779 5778 5776 5773 5770 5768 5765 5762 5760 5757 5753 5750 5747 5743
5725 5726 5728 5731 5736 5741 5746 5750 5753 5757 5761 5764 5768 5771 5774 5777 5779 5781 5784 5787 5791 5794 5797 5799 5801 5802 5804 5805 5806 5807 5808 5809 5809 5810 5811 5812 5813 5813 5813 5813 5812 5812 5812 5811 5810 5809 5808 5807 5805 5804 5803 5802 5801 5799 5799 5798 5796 5795 5794 5793 5792 5791 5790 5789 5787 5786 5785 5783 5782 5781 5779 5776 5775 5772 5770 5767 5764 5761 5759 5756 5754 5751 5748 5746 5742
5720 5723 5725 5727 5729 5732 5736 5741 5745 5749 5753 5757 5761 5764 5767 5770 5772 5775 5778 5781 5784 5788 5791 5793 5795 5797 5798 5800 5802 5803 5804 5805 5805 5806 5807 5808 5809 5810 5810 5810 5809 5809 5809 5809 5808 5806 5806 5804 5803 5802 5801 5800 5798 5797 5796 5795 5794 5793 5792 5791 5790 5788 5787 5786 5784 5783 5782 5781 5779 5778 5776 5773 5771 5769 5766 5764 5761 5758 5755 5753 5751 5749 5746 5744 5741
5715 5719 5722 5725 5726 5727 5729 5732 5736 5741 5746 5749 5753 5757 5760 5763 5766 5768 5772 5775 5778 5781 5785 5787 5789 5791 5793 5796 5798 5799 5799 5800 5800 5802 5803 5804 5805 5806 5806 5806 5806 5806 5806 5806 5805 5804 5803 5802 5800 5799 5798 5797 5796 5795 5793 5792 5791 5790 5789 5788 5787 5785 5784 5783 5782 5780 5779 5778 5777 5775 5773 5770 5768 5766 5763 5760 5758 5755 5753 5750 5748 5747 5744 5742 5739
5709 5713 5715 5717 5720 5723 5726 5727 5728 5733 5738 5742 5746 5750 5753 5756 5759 5762 5766 5769 5772 5775 5779 5782 5784 5786 5789 5791 5792 5794 5794 5795 5795 5797 5799 5800 5800 5801 5802 5803 5803 5803 5803 5803 5802 5801 5801 5800 5798 5796 5795 5794 5793 5792 5791 5790 5789 5788 5786 5785 5784 5783 5782 5781 5779 5778 5777 5776 5775 5773 5770 5767 5765 5762 5760 5758 5755 5752 5750 5748 5746 5744 5742 5739 5736
5701 5704 5707 5709 5711 5715 5720 5722 5723 5725 5729 5734 5738 5743 5746 5750 5753 5757 5760 5763 5766 5769 5773 5776 5779 5781 5784 5786 5787 5788 5789 5789 5790 5792 5794 5795 5796 5797 5798 5799 5800 5800 5799 5799 5799 5799 5798 5797 5795 5794 5793 5792 5791 5789 5788 5787 5786 5785 5784 5783 5781 5780 5780 5779 5777 5776 5775 5774 5772 5770 5767 5764 5762 5759 5757 5755 5753 5750 5748 5746 5744 5742 5740 5737 5734
5693 5695 5699 5702 5706 5709 5714 5718 5718 5718 5720 5725 5729 5734 5738 5742 5746 5750 5753 5757 5760 5763 5767 5770 5773 5776 5779 5780 5781 5783 5784 5784 5785 5787 5788 5790 5792 5792 5793 5795 5796 5796 5796 5796 5796 5795 5795 5794 5793 5791 5790 5789 5788 5787 5786 5784 5783 5782 5781 5780 5779 5778 5778 5777 5775 5774 5773 5771 5769 5767 5764 5762 5759 5757 5755 5753 5751 5748 5746 5743 5741 5739 5737 5735 5732
5684 5687 5690 5694 5699 5703 5707 5711 5710 5708 5710 5715 5719 5724 5730 5734 5738 5742 5746 5750 5754 5758 5761 5764 5767 5770 5772 5774 5776 5777 5779 5780 5781 5782 5784 5785 5786 5788 5789 5790 5791 5792 5793 5792 5792 5792 5792 5791 5790 5789 5788 5787 5786 5785 5783 5782 5780 5780 5779 5778 5777 5776 5775 5774 5772 5771 5769 5768 5766 5764 5762 5760 5757 5755 5752 5751 5748 5746 5744 5741 5738 5736 5734 5731 5729
5676 5679 5682 5687 5692 5695 5700 5703 5701 5698 5700 5706 5711 5716 5722 5726 5731 5735 5739 5744 5748 5752 5754 5757 5760 5763 5766 5768 5770 5772 5774 5776 5777 5778 5779 5780 5781 5782 5784 5785 5787 5788 5788 5789 5789 5789 5789 5788 5787 5786 5785 5784 5783 5782 5780 5779 5778 5777 5776 5776 5775 5774 5773 5771 5769 5768 5766 5765 5763 5761 5760 5757 5755 5753 5750 5748 5746 5744 5741 5738 5736 5733 5731 5728 5725
5668 5672 5676 5680 5684 5687 5690 5693 5693 5691 5692 5698 5704 5710 5715 5719 5724 5728 5732 5737 5742 5745 5747 5749 5753 5757 5759 5761 5763 5766 5769 5771 5773 5774 5774 5775 5776 5777 5778 5780 5782 5783 5784 5785 5785 5785 5786 5785 5784 5783 5782 5781 5780 5779 5777 5776 5775 5774 5774 5773 5772 5771 5770 5768 5766 5765 5763 5762 5761 5759 5757 5755 5753 5750 5748 5746 5743 5741 5738 5736 5733 5731 5728 5725 5722
5660 5665 5669 5673 5677 5679 5681 5684 5686 5686 5687 5692 5699 5704 5708 5712 5717 5722 5726 5731 5735 5738 5740 5743 5747 5750 5753 5754 5756 5759 5763 5767 5768 5769 5769 5770 5770 5771 5773 5775 5777 5778 5780 5780 5781 5781 5782 5782 5781 5780 5779 5778 5777 5776 5774 5772 5771 5771 5770 5770 5769 5767 5766 5765 5763 5762 5761 5759 5758 5757 5755 5753 5751 5748 5745 5743 5740 5738 5735 5733 5730 5728 5725 5722 5719
5652 5657 5661 5665 5668 5670 5672 5676 5679 5681 5683 5688 5694 5698 5702 5706 5711 5715 5720 5724 5728 5730 5733 5737 5741 5743 5746 5748 5750 5753 5757 5761 5763 5764 5764 5765 5765 5766 5768 5770 5771 5773 5775 5776 5777 5777 5777 5778 5778 5777 5776 5775 5774 5773 5771 5769 5768 5767 5767 5766 5765 5764 5762 5761 5760 5759 5758 5757 5756 5754 5752 5750 5748 5745 5743 5740 5737 5735 5732 5729 5727 5724 5722 5719 5716
5644 5649 5653 5656 5659 5662 5665 5668 5672 5676 5679 5683 5688 5692 5696 5701 5705 5709 5713 5717 5720 5723 5727 5731 5734 5737 5739 5742 5744 5746 5750 5755 5757 5758 5759 5759 5760 5761 5762 5764 5766 5768 5770 5771 5772 5773 5773 5773 5774 5774 5773 5772 5771 5770 5768 5766 5765 5764 5764 5763 5762 5760 5759 5758 5757 5757 5755 5754 5753 5751 5749 5747 5745 5743 5740 5738 5735 5732 5729 5726 5724 5721 5719 5716 5714
5636 5640 5645 5648 5651 5654 5659 5663 5666 5671 5675 5679 5682 5686 5690 5695 5699 5702 5705 5709 5712 5716 5721 5724 5727 5731 5733 5735 5737 5740 5744 5748 5750 5752 5753 5754 5755 5755 5756 5758 5760 5762 5764 5766 5767 5768 5768 5769 5770 5770 5770 5769 5768 5766 5765 5763 5761 5761 5760 5760 5758 5757 5756 5755 5754 5753 5752 5751 5750 5748 5746 5745 5742 5739 5737 5735 5732 5729 5726 5723 5721 5719 5717 5714 5711
5630 5634 5638 5641 5644 5647 5653 5658 5661 5665 5669 5672 5675 5679 5684 5688 5692 5695 5698 5701 5704 5708 5712 5717 5721 5724 5727 5729 5732 5734 5737 5741 5743 5746 5748 5748 5749 5749 5750 5752 5755 5757 5759 5761 5762 5763 5764 5764 5765 5766 5766 5765 5764 5763 5761 5759 5758 5757 5757 5756 5755 5754 5753 5751 5751 5750 5749 5747 5746 5744 5743 5741 5739 5736 5734 5732 5729 5726 5723 5720 5719 5717 5714 5712 5709
5625 5629 5632 5636 5639 5642 5646 5651 5655 5658 5661 5664 5668 5672 5676 5680 5685 5688 5689 5692 5696 5700 5704 5708 5712 5716 5720 5723 5725 5728 5731 5734 5737 5739 5741 5742 5743 5743 5745 5747 5749 5752 5754 5756 5757 5758 5759 5760 5761 5762 5762 5762 5761 5759 5757 5756 5755 5754 5753 5752 5751 5750 5749 5748 5747 5746 5745 5744 5742 5741 5739 5738 5736 5733 5731 5728 5726 5722 5720 5718 5716 5714 5712 5709 5706
5618 5622 5625 5629 5633 5636 5639 5642 5647 5650 5653 5656 5660 5664 5668 5672 5677 5681 5683 5685 5688 5692 5696 5700 5704 5707 5711 5715 5718 5721 5724 5727 5729 5732 5733 5735 5736 5738 5739 5741 5743 5746 5749 5750 5752 5753 5754 5755 5756 5757 5758 5758 5757 5755 5753 5752 5751 5750 5749 5748 5748 5747 5746 5744 5743 5742 5741 5740 5738 5737 5736 5735 5732 5730 5727 5725 5722 5719 5717 5715 5713 5711 5709 5706 5703
5611 5615 5618 5622 5625 5627 5630 5634 5638 5642 5645 5649 5652 5656 5660 5664 5669 5672 5676 5679 5682 5684 5688 5691 5694 5698 5701 5705 5708 5711 5715 5719 5721 5723 5726 5728 5730 5732 5733 5734 5737 5740 5743 5744 5746 5748 5749 5750 5751 5752 5753 5754 5753 5752 5750 5747 5747 5746 5745 5745 5745 5744 5741 5740 5739 5738 5737 5736 5734 5733 5732 5731 5729 5726 5724 5721 5719 5716 5714 5712 5711 5708 5706 5703 5701
5605 5609 5612 5614 5617 5619 5622 5626 5629 5633 5637 5641 5645 5649 5653 5657 5661 5664 5667 5671 5674 5677 5680 5682 5685 5688 5691 5695 5698 5701 5705 5710 5713 5716 5719 5721 5723 5725 5726 5728 5731 5734 5736 5738 5740 5742 5743 5745 5746 5748 5749 5749 5749 5747 5746 5744 5742 5742 5742 5741 5741 5739 5737 5736 5736 5734 5733 5732 5730 5728 5727 5727 5725 5723 5720 5718 5715 5713 5711 5710 5708 5705 5703 5700 5698
5597 5601 5603 5606 5609 5612 5615 5619 5622 5626 5630 5634 5638 5642 5645 5648 5652 5656 5659 5661 5663 5667 5671 5675 5677 5678 5680 5684 5689 5693 5697 5702 5707 5710 5713 5714 5717 5718 5719 5721 5725 5728 5729 5731 5734 5736 5738 5739 5741 5743 5744 5745 5744 5743 5741 5740 5738 5738 5738 5737 5736 5735 5734 5733 5732 5730 5729 5727 5726 5724 5723 5722 5721 5719 5717 5714 5712 5710 5708 5707 5705 5703 5700 5698 5695
5590 5594 5597 5600 5603 5606 5610 5613 5616 5619 5623 5627 5631 5635 5638 5640 5643 5646 5650 5653 5654 5657 5662 5665 5668 5671 5674 5676 5680 5685 5689 5693 5698 5703 5707 5710 5712 5712 5713 5716 5719 5720 5721 5724 5727 5730 5731 5733 5736 5737 5739 5739 5739 5738 5737 5735 5734 5734 5734 5732 5731 5731 5730 5729 5727 5726 5724 5723 5721 5720 5719 5717 5716 5715 5713 5710 5709 5707 5705 5704 5702 5700 5697 5695 5692
5586 5590 5593 5596 5598 5601 5603 5606 5609 5612 5617 5621 5624 5627 5629 5632 5634 5638 5641 5644 5646 5649 5653 5655 5656 5661 5667 5670 5673 5676 5681 5685 5688 5693 5698 5703 5706 5708 5709 5711 5712 5712 5714 5717 5721 5723 5725 5727 5729 5732 5733 5733 5733 5732 5732 5730 5729 5730 5729 5727 5726 5726 5725 5724 5723 5721 5719 5718 5717 5715 5714 5712 5711 5710 5709 5707 5705 5703 5702 5700 5699 5697 5694 5692 5689
5581 5585 5588 5590 5592 5595 5597 5600 5603 5606 5609 5612 5615 5618 5621 5623 5625 5629 5632 5635 5638 5641 5645 5647 5648 5652 5657 5661 5665 5669 5673 5676 5679 5683 5687 5691 5696 5700 5703 5705 5705 5705 5707 5710 5713 5715 5717 5720 5723 5725 5727 5727 5727 5727 5726 5726 5725 5725 5724 5723 5722 5722 5721 5720 5718 5716 5715 5714 5712 5711 5710 5708 5707 5706 5705 5703 5702 5700 5698 5697 5696 5694 5691 5689 5686
5576 5580 5583 5585 5587 5589 5591 5594 5596 5598 5601 5603 5606 5610 5614 5616 5619 5621 5624 5627 5630 5633 5636 5640 5642 5645 5648 5652 5657 5662 5665 5666 5669 5674 5678 5681 5684 5688 5693 5696 5697 5698 5700 5703 5706 5708 5710 5713 5716 5718 5720 5721 5721 5721 5721 5721 5721 5720 5719 5718 5718 5717 5716 5715 5714 5712 5711 5709 5707 5706 5705 5704 5703 5702 5701 5699 5698 5696 5695 5694 5692 5690 5688 5686 5684
5571 5574 5577 5579 5582 5584 5587 5589 5591 5593 5595 5597 5600 5603 5606 5609 5612 5615 5617 5619 5622 5625 5628 5632 5635 5637 5640 5645 5649 5654 5657 5658 5661 5665 5669 5673 5675 5678 5682 5686 5688 5691 5693 5695 5698 5701 5703 5705 5708 5711 5713 5714 5714 5715 5716 5716 5716 5715 5714 5714 5714 5713 5712 5710 5709 5708 5706 5705 5704 5703 5701 5700 5699 5698 5697 5695 5694 5693 5692 5691 5689 5687 5685 5683 5681
5564 5568 5571 5573 5576 5579 5582 5585 5587 5589 5591 5593 5595 5598 5601 5603 5606 5608 5611 5613 5615 5616 5620 5624 5628 5631 5635 5639 5642 5645 5648 5651 5654 5657 5661 5664 5668 5671 5674 5677 5679 5682 5685 5688 5692 5694 5696 5699 5702 5704 5705 5706 5707 5708 5709 5710 5710 5710 5710 5709 5709 5708 5706 5705 5704 5703 5702 5701 5700 5699 5697 5696 5695 5693 5692 5691 5690 5689 5688 5687 5685 5684 5682 5680 5678
5560 5563 5565 5568 5571 5574 5577 5579 5581 5583 5586 5588 5591 5594 5596 5598 5600 5602 5605 5607 5609 5611 5613 5616 5620 5625 5629 5632 5634 5637 5640 5643 5647 5651 5654 5657 5661 5665 5669 5670 5671 5674 5677 5682 5686 5688 5689 5691 5694 5695 5698 5700 5701 5702 5703 5703 5704 5705 5705 5704 5704 5702 5701 5700 5700 5699 5698 5696 5694 5693 5692 5691 5690 5689 5688 5687 5686 5685 5685 5684 5682 5680 5679 5676 5674
5556 5559 5561 5563 5566 5568 5571 5574 5576 5578 5580 5583 5586 5588 5590 5592 5593 5596 5599 5601 5603 5605 5607 5610 5614 5618 5620 5624 5627 5629 5632 5636 5640 5644 5647 5650 5655 5659 5661 5663 5665 5667 5670 5674 5678 5680 5681 5683 5686 5688 5691 5693 5694 5696 5697 5697 5698 5699 5699 5699 5698 5696 5696 5696 5695 5693 5692 5691 5689 5688 5687 5686 5685 5684 5683 5682 5682 5681 5681 5680 5678 5677 5675 5673 5671
5552 5554 5557 5559 5561 5563 5567 5569 5572 5574 5576 5578 5580 5582 5584 5586 5588 5590 5593 5595 5596 5597 5600 5604 5608 5611 5612 5615 5619 5621 5625 5630 5633 5636 5639 5644 5648 5651 5653 5655 5657 5660 5662 5664 5668 5671 5673 5675 5678 5680 5683 5685 5687 5689 5691 5692 5693 5694 5694 5694 5692 5690 5690 5691 5690 5687 5686 5686 5684 5683 5682 5681 5680 5679 5678 5678 5677 5677 5677 5676 5675 5673 5672 5670 5668
5547 5549 5552 5554 5556 5559 5562 5565 5567 5570 5571 5573 5575 5577 5579 5582 5583 5585 5587 5588 5589 5590 5592 5596 5601 5604 5606 5609 5613 5615 5618 5621 5624 5628 5633 5637 5641 5644 5646 5647 5648 5652 5655 5657 5658 5661 5665 5668 5671 5673 5676 5678 5681 5683 5685 5686 5687 5688 5689 5688 5687 5685 5685 5685 5684 5681 5680 5680 5679 5677 5677 5676 5675 5675 5674 5673 5673 5673 5673 5672 5671 5669 5668 5667 5665
5543 5545 5548 5550 5552 5554 5557 5560 5562 5564 5566 5568 5570 5572 5575 5577 5579 5579 5579 5581 5582 5584 5586 5589 5593 5597 5601 5604 5607 5609 5611 5613 5616 5621 5626 5630 5634 5637 5638 5638 5640 5645 5648 5649 5649 5653 5658 5662 5665 5667 5670 5673 5675 5678 5679 5681 5682 5683 5683 5682 5681 5680 5680 5679 5677 5674 5673 5673 5672 5671 5671 5670 5670 5670 5669 5668 5668 5669 5669 5668 5666 5665 5664 5663 5661
5538 5541 5543 5545 5548 5550 5553 5556 5557 5559 5561 5564 5566 5568 5569 5571 5572 5573 5573 5574 5575 5578 5580 5584 5587 5591 5594 5597 5600 5602 5604 5606 5609 5614 5618 5622 5626 5628 5628 5629 5632 5635 5638 5638 5641 5646 5652 5656 5659 5663 5665 5668 5670 5672 5674 5675 5676 5677 5677 5676 5676 5675 5674 5673 5671 5668 5666 5665 5665 5664 5664 5664 5664 5664 5664 5663 5664 5665 5664 5664 5662 5661 5660 5659 5657
5534 5535 5538 5540 5542 5545 5548 5550 5552 5554 5556 5559 5561 5563 5564 5564 5565 5567 5568 5569 5569 5572 5575 5578 5581 5584 5587 5590 5592 5595 5597 5599 5602 5606 5611 5614 5617 5617 5616 5617 5620 5623 5625 5629 5634 5640 5646 5650 5654 5657 5660 5662 5664 5666 5668 5669 5671 5671 5671 5670 5670 5670 5669 5668 5667 5664 5661 5659 5659 5659 5659 5659 5659 5659 5659 5659 5660 5660 5660 5660 5659 5658 5657 5656 5654
5530 5532 5534 5536 5538 5541 5544 5546 5548 5549 5551 5554 5556 5557 5558 5558 5559 5561 5563 5564 5564 5566 5569 5572 5574 5576 5579 5583 5586 5588 5591 5593 5595 5599 5603 5606 5607 5606 5604 5605 5608 5611 5616 5622 5628 5634 5639 5644 5648 5651 5653 5656 5658 5660 5662 5663 5664 5664 5664 5664 5664 5664 5664 5663 5661 5658 5655 5653 5653 5654 5654 5654 5654 5655 5654 5655 5656 5656 5656 5655 5655 5654 5653 5652 5651
5527 5529 5530 5532 5534 5537 5539 5541 5543 5544 5546 5548 5549 5550 5551 5552 5552 5554 5556 5558 5559 5560 5563 5565 5567 5570 5573 5576 5579 5581 5584 5586 5588 5591 5594 5596 5596 5595 5595 5598 5602 5605 5609 5615 5622 5627 5632 5637 5641 5645 5647 5649 5651 5653 5656 5657 5658 5658 5658 5657 5658 5659 5659 5657 5656 5653 5650 5648 5647 5648 5649 5650 5650 5650 5650 5650 5651 5652 5651 5651 5650 5650 5649 5648 5647
5525 5526 5527 5529 5531 5533 5534 5536 5537 5539 5540 5541 5543 5544 5545 5546 5546 5548 5549 5551 5552 5554 5556 5559 5561 5564 5567 5569 5572 5574 5577 5580 5582 5584 5585 5586 5586 5587 5590 5593 5596 5599 5602 5608 5614 5620 5625 5629 5634 5638 5640 5643 5645 5647 5649 5650 5651 5651 5651 5651 5653 5654 5654 5652 5651 5650 5648 5646 5645 5645 5645 5646 5646 5646 5646 5646 5647 5647 5647 5646 5646 5645 5645 5644 5643
5522 5523 5524 5526 5527 5529 5531 5532 5533 5534 5535 5536 5537 5539 5540 5541 5541 5542 5543 5544 5546 5548 5550 5553 5555 5557 5559 5562 5564 5567 5569 5573 5575 5577 5578 5580 5581 5583 5585 5587 5589 5592 5596 5601 5607 5613 5618 5622 5627 5631 5633 5636 5638 5641 5642 5643 5644 5645 5644 5644 5646 5648 5647 5647 5646 5645 5644 5644 5643 5642 5642 5642 5642 5642 5642 5642 5642 5643 5642 5642 5642 5641 5640 5639 5638
5518 5519 5520 5522 5523 5525 5527 5528 5528 5529 5530 5531 5532 5533 5534 5535 5536 5537 5538 5539 5540 5542 5545 5547 5549 5551 5552 5555 5557 5560 5563 5566 5568 5570 5573 5575 5577 5578 5580 5582 5584 5587 5591 5596 5602 5606 5611 5616 5620 5623 5626 5629 5631 5633 5635 5636 5638 5638 5638 5639 5641 5641 5642 5642 5642 5640 5639 5639 5638 5637 5637 5637 5637 5637 5637 5637 5638 5638 5638 5638 5637 5637 5636 5635 5635
5516 5517 5517 5518 5520 5521 5522 5523 5524 5525 5525 5526 5527 5528 5529 5530 5531 5532 5533 5534 5535 5537 5539 5541 5542 5544 5546 5548 5551 5554 5557 5560 5562 5564 5567 5569 5570 5571 5572 5574 5577 5581 5586 5592 5597 5601 5606 5610 5613 5616 5619 5622 5624 5626 5628 5630 5631 5631 5632 5634 5636 5636 5636 5636 5636 5635 5634 5633 5632 5632 5632 5632 5632 5632 5632 5633 5633 5633 5633 5633 5632 5632 5632 5631 5630
5514 5515 5515 5516 5517 5518 5518 5518 5519 5520 5521 5521 5521 5522 5523 5524 5526 5527 5528 5530 5531 5533 5534 5535 5537 5538 5540 5543 5545 5548 5551 5554 5556 5559 5561 5562 5562 5562 5564 5567 5570 5575 5581 5586 5591 5596 5600 5603 5607 5610 5613 5615 5617 5619 5621 5623 5624 5626 5627 5628 5629 5630 5630 5631 5631 5630 5628 5627 5626 5626 5626 5626 5627 5627 5627 5627 5627 5627 5627 5628 5628 5628 5628 5627 5626
5511 5512 5512 5513 5513 5514 5514 5514 5515 5515 5516 5516 5516 5517 5517 5519 5520 5522 5524 5525 5527 5528 5530 5531 5533 5534 5536 5538 5540 5543 5545 5548 5550 5552 5554 5555 5555 5556 5558 5561 5565 5571 5576 5581 5585 5589 5593 5596 5599 5602 5604 5607 5610 5612 5614 5616 5619 5620 5621 5622 5623 5624 5625 5625 5625 5624 5622 5621 5620 5620 5620 5620 5621 5621 5621 5621 5621 5622 5622 5623 5623 5623 5623 5623 5622
5508 5509 5509 5510 5510 5510 5510 5511 5511 5511 5511 5511 5512 5512 5512 5513 5515 5517 5519 5520 5521 5523 5525 5526 5528 5530 5531 5533 5536 5538 5540 5543 5544 5546 5548 5550 5550 5551 5554 5557 5561 5566 5571 5575 5579 5582 5586 5589 5591 5593 5596 5600 5603 5606 5608 5611 5612 5613 5614 5615 5616 5617 5618 5619 5619 5618 5616 5615 5615 5615 5614 5614 5614 5615 5615 5615 5616 5616 5617 5618 5618 5618 5618 5618 5617
5505 5506 5506 5507 5507 5507 5507 5507 5507 5507 5507 5507 5507 5508 5508 5509 5510 5512 5514 5515 5516 5518 5519 5521 5523 5525 5527 5528 5530 5533 5536 5538 5539 5541 5543 5545 5547 5548 5551 5555 5559 5563 5567 5570 5573 5576 5579 5582 5584 5587 5590 5594 5597 5600 5603 5604 5605 5606 5607 5609 5610 5611 5611 5612 5612 5611 5610 5609 5608 5608 5608 5607 5607 5608 5608 5609 5610 5611 5612 5612 5613 5613 5613 5613 5613
5503 5503 5503 5504 5504 5505 5505 5505 5505 5504 5504 5505 5504 5504 5505 5505 5506 5507 5508 5510 5511 5513 5515 5516 5518 5520 5522 5523 5525 5527 5530 5532 5533 5534 5537 5540 5542 5545 5548 5551 5555 5558 5560 5564 5567 5570 5573 5576 5579 5581 5584 5587 5591 5594 5596 5597 5598 5599 5601 5602 5604 5604 5605 5605 5604 5604 5603 5602 5602 5602 5601 5601 5601 5602 5603 5603 5604 5605 5606 5607 5607 5608 5608 5608 5608
5500 5500 5500 5500 5501 5502 5502 5502 5502 5502 5502 5501 5501 5501 5502 5502 5502 5502 5503 5504 5506 5508 5510 5512 5513 5515 5517 5519 5520 5522 5525 5527 5528 5530 5532 5534 5536 5539 5543 5546 5549 5550 5552 5555 5560 5564 5567 5569 5572 5575 5578 5582 5585 5587 5589 5590 5591 5593 5595 5597 5598 5598 5598 5598 5597 5597 5597 5597 5597 5596 5596 5595 5596 5597 5598 5598 5598 5599 5600 5601 5602 5602 5603 5602 5602
5497 5497 5497 5497 5497 5498 5499 5499 5499 5499 5498 5498 5498 5498 5498 5498 5498 5499 5499 5500 5501 5503 5504 5506 5509 5511 5513 5514 5516 5518 5520 5522 5524 5526 5528 5530 5532 5535 5538 5542 5544 5545 5546 5549 5554 5559 5561 5564 5567 5570 5573 5577 5579 5581 5582 5584 5585 5587 5589 5590 5590 5591 5591 5591 5590 5590 5590 5590 5591 5591 5590 5590 5590 5591 5592 5592 5594 5595 5595 5596 5596 5597 5597 5597 5597
5494 5494 5494 5493 5493 5494 5495 5496 5496 5496 5495 5495 5496 5496 5495 5495 5495 5496 5496 5496 5497 5498 5500 5502 5504 5506 5507 5510 5512 5514 5516 5519 5520 5522 5525 5527 5529 5531 5534 5537 5539 5541 5543 5546 5550 5553 5556 5559 5562 5565 5567 5570 5572 5574 5576 5578 5579 5581 5582 5582 5582 5583 5583 5583 5582 5582 5582 5583 5584 5584 5584 5584 5584 5585 5587 5588 5589 5590 5591 5591 5591 5591 5591 5592 5592
5491 5490 5490 5490 5491 5492 5492 5492 5493 5493 5492 5492 5493 5493 5493 5493 5493 5493 5493 5493 5494 5495 5496 5497 5499 5501 5503 5505 5507 5510 5512 5515 5517 5519 5520 5522 5525 5527 5530 5533 5535 5537 5540 5543 5545 5548 5551 5553 5556 5558 5561 5564 5566 5568 5569 5571 5572 5573 5574 5574 5574 5575 5576 5576 5575 5574 5575 5576 5577 5576 5577 5579 5580 5581 5582 5583 5584 5585 5586 5586 5586 5586 5586 5586 5586
5487 5487 5487 5487 5488 5489 5489 5489 5490 5490 5490 5489 5490 5490 5490 5490 5491 5491 5491 5491 5491 5492 5492 5493 5495 5497 5498 5500 5502 5505 5507 5510 5513 5515 5516 5518 5520 5523 5526 5528 5531 5533 5536 5538 5541 5543 5546 5548 5550 5553 5555 5558 5560 5561 5562 5564 5565 5565 5565 5566 5567 5569 5570 5570 5570 5569 5569 5571 5571 5571 5573 5575 5576 5576 5577 5579 5580 5580 5580 5580 5580 5581 5581 5581 5581
5482 5483 5484 5485 5485 5485 5485 5486 5486 5487 5487 5487 5487 5487 5487 5488 5488 5489 5489 5489 5489 5489 5489 5490 5491 5493 5494 5496 5498 5500 5503 5505 5508 5510 5512 5514 5516 5518 5521 5523 5526 5528 5531 5533 5536 5538 5540 5542 5545 5547 5549 5551 5552 5553 5555 5556 5557 5557 5557 5559 5560 5561 5563 5564 5564 5564 5565 5566 5567 5568 5569 5570 5571 5572 5573 5574 5574 5575 5575 5575 5575 5575 5575 5575 5575